User: anonymous   Login
Location: Carri�res
(48.9069°N, 2.1792°E)
Time: 19:40:52
(UTC+00:00)
Language:

YAOGAN 1 - Orbit

View from above orbital plane
View from above orbital plane
View from above satellite
View from above satellite

Ground track
Ground track

The orbit data is extracted from the following two-line orbital elements,

1 29092U 06015A   21102.80426541  .00000073  00000-0  15393-4 0  9995
2 29092  97.9148 130.8189 0001431  90.9923 269.1454 14.83146078809205
Epoch (UTC): 12 April 2021 19:18:08
Eccentricity: 0.0001431
inclination: 97.9148°
perigee height: 618 km
apogee height: 620 km
right ascension of ascending node: 130.8189°
argument of perigee: 90.9923°
revolutions per day: 14.83146078
mean anomaly at epoch: 269.1454°
orbit number at epoch: 80920

The dashed part of the orbit path shows where the satellite is in the earth's shadow,  

DLR